1522638000.23,8596,9.13,71796.3,-12.79,-13.47,-13.47,0,*5F
1522638001.44,8597,9.13,71794.8,-12.81,-13.51,-13.51,0,*59
1522638002.71,8598,9.13,71794.8,-12.79,-13.61,-13.51,0,*52
1522638003.9,8599,9.13,71816.5,-12.81,-13.47,-13.47,0,*57
1522638005.12,8600,9.13,71784.8,-12.81,-13.51,-13.51,0,*54
1522638006.35,8601,9.13,71760.5,-12.79,-13.47,-13.47,0,*52
1522638007.6,8602,9.13,71786.3,-12.79,-13.37,-13.47,0,*56
1522638008.83,8603,9.13,71804.3,-12.79,-13.47,-13.47,0,*50
1522638010.05,8604,9.13,71832.5,-12.79,-13.47,-13.47,0,*57
1522638011.28,8605,9.13,71818.8,-12.81,-13.37,-13.47,0,*56
1522638012.48,8606,9.13,71828.8,-12.81,-13.47,-13.47,0,*52
1522638013.73,8607,9.13,71830.8,-12.79,-13.47,-13.37,0,*53
1522638014.99,8608,9.13,71840.3,-12.79,-13.37,-13.47,0,*5C
1522638016.25,8609,9.13,71824.3,-12.79,-13.37,-13.51,0,*5A
1522638017.51,8610,9.13,71848.0,-12.79,-13.37,-13.47,0,*55
1522638018.79,8611,9.13,71820.0,-12.79,-13.37,-13.37,0,*53
1522638020.05,8612,9.13,71806.3,-12.79,-13.37,-13.51,0,*50
1522638021.28,8613,9.13,71838.8,-12.79,-13.47,-13.47,0,*51
1522638022.51,8614,9.13,71834.5,-12.79,-13.47,-13.51,0,*51
1522638023.75,8615,9.13,71834.5,-12.79,-13.51,-13.47,0,*50
1522638024.94,8616,9.13,71824.0,-12.77,-13.47,-13.47,0,*5A
1522638026.17,8617,9.13,71832.8,-12.77,-13.37,-13.47,0,*5C
1522638027.37,8618,9.13,71834.8,-12.77,-13.47,-13.47,0,*54
1522638028.59,8619,9.13,71840.8,-12.77,-13.47,-13.61,0,*51
1522638029.82,8620,9.13,71840.0,-12.77,-13.47,-13.61,0,*5B
1522638031.06,8621,9.13,71832.0,-12.77,-13.37,-13.51,0,*5E
1522638032.26,8622,9.13,71820.8,-12.77,-13.47,-13.51,0,*5A
1522638033.46,8623,9.13,71822.5,-12.77,-13.47,-13.47,0,*5C
1522638034.7,8624,9.13,71808.5,-12.77,-13.51,-13.61,0,*58
1522638035.91,8625,9.13,71798.5,-12.81,-13.51,-13.65,0,*54
1522638037.15,8626,9.13,71800.8,-12.79,-13.51,-13.65,0,*50
1522638038.39,8627,9.13,71796.5,-12.79,-13.51,-13.65,0,*51
1522638039.63,8628,9.13,71812.0,-12.79,-13.51,-13.69,0,*52
1522638040.89,8629,9.13,71824.5,-12.79,-13.47,-13.61,0,*5C
1522638042.18,8630,9.13,71830.5,-12.79,-13.61,-13.61,0,*50
1522638043.41,8631,9.13,71832.3,-12.79,-13.47,-13.51,0,*56
1522638044.65,8632,9.13,71836.5,-12.79,-13.51,-13.51,0,*52
1522638045.89,8633,9.13,71852.5,-12.79,-13.51,-13.47,0,*54
1522638047.15,8634,9.13,71868.8,-12.79,-13.47,-13.33,0,*57
1522638048.4,8635,9.13,71872.5,-12.77,-13.33,-13.33,0,*5B
1522638049.66,8636,9.13,71860.5,-12.77,-13.33,-13.33,0,*58
1522638050.92,8637,9.13,71844.0,-12.77,-13.37,-13.33,0,*5D
1522638052.18,8638,9.13,71844.3,-12.77,-13.37,-13.33,0,*52
1522638053.43,8639,9.13,71836.8,-12.77,-13.33,-13.37,0,*53
1522638054.72,8640,9.13,71838.8,-12.79,-13.37,-13.37,0,*57
1522638056.0,8641,9.13,71822.3,-12.79,-13.33,-13.33,0,*56
1522638057.29,8642,9.13,71792.8,-12.79,-13.37,-13.37,0,*55
1522638058.57,8643,9.13,71786.3,-12.79,-13.37,-13.37,0,*54
1522638059.83,8644,9.13,71788.0,-12.77,-13.33,-13.37,0,*59
1522638061.09,8645,9.13,71782.0,-12.77,-13.33,-13.33,0,*5C
1522638062.31,8646,9.13,71802.0,-12.77,-13.47,-13.37,0,*58
1522638063.57,8647,9.13,71834.5,-12.77,-13.37,-13.33,0,*5A
1522638064.83,8648,9.13,71852.0,-12.77,-13.37,-13.37,0,*51
1522638066.08,8649,9.13,71850.8,-12.77,-13.33,-13.33,0,*50
1522638067.31,8650,9.13,71832.5,-12.77,-13.37,-13.47,0,*5F
1522638068.59,8651,9.13,71798.0,-12.75,-13.33,-13.33,0,*5B
1522638069.82,8652,9.13,71814.5,-12.75,-13.47,-13.43,0,*5C
1522638071.1,8653,9.13,71808.3,-12.79,-13.37,-13.37,0,*55
1522638072.32,8654,9.13,71792.8,-12.77,-13.33,-13.47,0,*5F
1522638073.52,8655,9.13,71800.0,-12.77,-13.47,-13.47,0,*5D
1522638074.78,8656,9.13,71806.5,-12.77,-13.37,-13.37,0,*5E
1522638076.01,8657,9.13,71824.5,-12.75,-13.43,-13.43,0,*5D
1522638077.26,8658,9.13,71828.3,-12.77,-13.33,-13.33,0,*50
1522638078.52,8659,9.13,71806.8,-12.77,-13.37,-13.37,0,*51
1522638079.77,8660,9.13,71800.3,-12.77,-13.33,-13.37,0,*5F
1522638081.03,8661,9.13,71798.0,-12.77,-13.37,-13.37,0,*5A
1522638082.28,8662,9.13,71806.5,-12.77,-13.37,-13.37,0,*59
1522638083.54,8663,9.13,71800.5,-12.77,-13.33,-13.33,0,*58
1522638084.79,8664,9.13,71820.5,-12.77,-13.33,-13.37,0,*5B
1522638086.05,8665,9.13,71852.3,-12.77,-13.37,-13.37,0,*5E
1522638087.3,8666,9.13,71846.3,-12.77,-13.37,-13.37,0,*5D
1522638088.56,8667,9.13,71852.5,-12.77,-13.37,-13.37,0,*5C
1522638089.79,8668,9.13,71860.8,-12.77,-13.23,-13.37,0,*56
1522638091.08,8669,9.13,71868.3,-12.75,-13.29,-13.29,0,*50
1522638092.34,8670,9.13,71888.0,-12.75,-13.33,-13.19,0,*50
1522638093.62,8671,9.13,71874.5,-12.75,-13.29,-13.29,0,*59
1522638094.88,8672,9.13,71868.3,-12.75,-13.19,-13.29,0,*59
1522638096.14,8673,9.13,71872.3,-12.77,-13.33,-13.33,0,*59
1522638097.42,8674,9.13,71872.3,-12.75,-13.29,-13.33,0,*57
1522638098.71,8675,9.13,71866.8,-12.75,-13.33,-13.33,0,*5D
1522638099.99,8676,9.13,71852.0,-12.75,-13.33,-13.33,0,*5E
1522638101.21,8677,9.13,71818.5,-12.77,-13.37,-13.47,0,*5A
1522638102.42,8678,9.06,71814.5,-12.77,-13.47,-13.51,0,*55
1522638103.65,8679,9.13,71826.8,-12.77,-13.47,-13.61,0,*57
1522638104.85,8680,9.13,71796.3,-12.77,-13.51,-13.47,0,*52
1522638106.08,8681,9.13,71786.3,-12.75,-13.43,-13.47,0,*52
1522638107.3,8682,9.13,71758.0,-12.75,-13.47,-13.47,0,*55
1522638108.53,8683,9.13,71744.0,-12.75,-13.43,-13.43,0,*54
1522638109.73,8684,9.13,71796.0,-12.77,-13.51,-13.47,0,*56
1522638110.99,8685,9.13,71806.0,-12.75,-13.33,-13.43,0,*55
1522638112.27,8686,9.13,71818.5,-12.75,-13.29,-13.29,0,*51
1522638113.55,8687,9.13,71814.3,-12.75,-13.33,-13.29,0,*5B
1522638114.83,8688,9.13,71824.3,-12.75,-13.33,-13.33,0,*5F
1522638116.09,8689,9.13,71842.0,-12.77,-13.37,-13.37,0,*5C
1522638117.32,8690,9.13,71844.3,-12.77,-13.37,-13.51,0,*54
1522638118.55,8691,9.13,71812.5,-12.75,-13.43,-13.43,0,*57
1522638119.78,8692,9.13,71788.8,-12.75,-13.43,-13.43,0,*54
1522638121.06,8693,9.13,71830.3,-12.75,-13.33,-13.33,0,*55
1522638122.28,8694,9.13,71830.0,-12.77,-13.33,-13.47,0,*53
1522638123.51,8695,9.13,71846.8,-12.77,-13.29,-13.47,0,*59
1522638124.79,8696,9.13,71860.0,-12.75,-13.33,-13.33,0,*50
1522638126.04,8697,9.13,71830.3,-12.75,-13.33,-13.43,0,*56
1522638127.25,8698,9.13,71824.5,-12.77,-13.51,-13.47,0,*5B
1522638128.49,8699,9.13,71820.3,-12.77,-13.51,-13.61,0,*5E
1522638129.72,8700,9.13,71814.3,-12.75,-13.43,-13.55,0,*59
1522638130.95,8701,9.13,71808.8,-12.75,-13.47,-13.55,0,*5C
1522638132.15,8702,9.13,71800.5,-12.77,-13.47,-13.55,0,*5D
1522638133.39,8703,9.13,71802.0,-12.77,-13.51,-13.61,0,*5C
1522638134.59,8704,9.13,71810.0,-12.77,-13.47,-13.55,0,*5B
1522638135.79,8705,9.13,71812.0,-12.77,-13.47,-13.47,0,*59
1522638137.02,8706,9.13,71808.5,-12.75,-13.43,-13.43,0,*58
1522638138.23,8707,9.13,71808.8,-12.77,-13.51,-13.51,0,*5B
1522638139.43,8708,9.13,71814.5,-12.77,-13.47,-13.47,0,*54
1522638140.66,8709,9.13,71800.0,-12.77,-13.37,-13.51,0,*55
1522638141.88,8710,9.13,71802.8,-12.75,-13.43,-13.47,0,*5B
1522638143.11,8711,9.13,71802.5,-12.75,-13.47,-13.47,0,*5E
1522638144.31,8712,9.13,71806.8,-12.77,-13.47,-13.51,0,*58
1522638145.57,8713,9.13,71812.3,-12.77,-13.37,-13.37,0,*5E
1522638146.82,8714,9.13,71814.0,-12.75,-13.29,-13.43,0,*57
1522638148.04,8715,9.13,71820.3,-12.77,-13.33,-13.47,0,*5B
1522638149.27,8716,9.13,71820.8,-12.75,-13.43,-13.43,0,*59
1522638150.51,8717,9.13,71818.5,-12.77,-13.37,-13.51,0,*5A
1522638151.74,8718,9.13,71800.0,-12.75,-13.43,-13.55,0,*50
1522638152.93,8719,9.13,71802.5,-12.77,-13.47,-13.47,0,*54
1522638154.16,8720,9.13,71800.0,-12.77,-13.37,-13.47,0,*59
1522638155.42,8721,9.13,71810.3,-12.75,-13.43,-13.33,0,*5A
1522638156.62,8722,9.13,71824.8,-12.77,-13.47,-13.51,0,*5B
1522638157.9,8723,9.13,71808.8,-12.75,-13.33,-13.33,0,*5F
1522638159.16,8724,9.13,71788.5,-12.77,-13.37,-13.37,0,*5A
1522638160.44,8725,9.13,71804.0,-12.75,-13.33,-13.33,0,*59
1522638161.67,8726,9.13,71790.0,-12.77,-13.37,-13.47,0,*5F
1522638162.92,8727,9.13,71832.0,-12.75,-13.33,-13.43,0,*5C
1522638164.17,8728,9.13,71844.0,-12.77,-13.33,-13.37,0,*52
1522638165.43,8729,9.13,71828.5,-12.75,-13.37,-13.43,0,*56
1522638166.63,8730,9.13,71824.8,-12.77,-13.51,-13.47,0,*58
1522638167.89,8731,9.13,71818.5,-12.77,-13.33,-13.37,0,*5A
1522638169.12,8732,9.13,71816.8,-12.77,-13.37,-13.51,0,*5D
1522638170.35,8733,9.13,71768.5,-12.75,-13.55,-13.47,0,*5D
1522638171.61,8734,9.13,71792.0,-12.77,-13.61,-13.61,0,*5B
1522638172.83,8735,9.13,71806.8,-12.77,-13.47,-13.61,0,*5E
1522638174.09,8736,9.13,71824.0,-12.75,-13.33,-13.43,0,*5C
1522638175.34,8737,9.13,71792.3,-12.77,-13.33,-13.33,0,*58
1522638176.58,8738,9.13,71780.0,-12.77,-13.61,-13.51,0,*54
1522638177.81,8739,9.13,71798.8,-12.75,-13.55,-13.55,0,*54
1522638179.04,8740,9.13,71846.3,-12.75,-13.43,-13.43,0,*5A
1522638180.26,8741,9.13,71844.3,-12.75,-13.47,-13.43,0,*5F
1522638181.49,8742,9.13,71826.5,-12.77,-13.61,-13.65,0,*5E
1522638182.72,8743,9.13,71838.0,-12.75,-13.47,-13.47,0,*59
1522638183.95,8744,9.13,71816.0,-12.77,-13.47,-13.61,0,*58
1522638185.15,8745,9.06,71822.5,-12.77,-13.51,-13.47,0,*5A
1522638186.36,8746,9.13,71800.3,-12.77,-13.51,-13.47,0,*59
1522638187.57,8747,9.13,71772.8,-12.77,-13.51,-13.65,0,*58
1522638188.78,8748,9.13,71792.0,-12.77,-13.51,-13.65,0,*57
1522638189.99,8749,9.13,71810.0,-12.77,-13.51,-13.51,0,*51
1522638191.22,8750,9.13,71832.3,-12.75,-13.47,-13.43,0,*5F
1522638192.42,8751,9.13,71826.5,-12.77,-13.47,-13.51,0,*5F
1522638193.64,8752,9.13,71810.3,-12.77,-13.51,-13.51,0,*5B
1522638194.84,8753,9.13,71814.3,-12.77,-13.47,-13.51,0,*5D
1522638196.03,8754,9.13,71830.8,-12.77,-13.47,-13.47,0,*5D
1522638197.29,8755,9.13,71830.8,-12.77,-13.37,-13.37,0,*5C
1522638198.55,8756,9.13,71814.8,-12.77,-13.33,-13.33,0,*5F
1522638199.81,8757,9.13,71822.5,-12.77,-13.37,-13.33,0,*5A
1522638201.06,8758,9.13,71844.0,-12.77,-13.33,-13.33,0,*51
1522638202.32,8759,9.06,71828.8,-12.77,-13.33,-13.29,0,*5B
1522638203.6,8760,9.13,71812.5,-12.75,-13.29,-13.33,0,*53
1522638204.89,8761,9.13,71826.3,-12.75,-13.29,-13.33,0,*52
1522638206.17,8762,9.06,71838.0,-12.75,-13.29,-13.29,0,*5A
1522638207.45,8763,9.13,71834.8,-12.75,-13.33,-13.29,0,*50
1522638208.7,8764,9.13,71832.0,-12.77,-13.33,-13.33,0,*5E
1522638209.96,8765,9.13,71834.8,-12.77,-13.33,-13.33,0,*5F
1522638211.22,8766,9.13,71822.5,-12.77,-13.33,-13.33,0,*5C
1522638212.47,8767,9.06,71820.0,-12.77,-13.37,-13.37,0,*5D
1522638213.7,8768,9.13,71840.5,-12.75,-13.43,-13.43,0,*50
1522638214.96,8769,9.13,71854.5,-12.77,-13.37,-13.37,0,*53
1522638216.21,8770,9.13,71854.3,-12.75,-13.47,-13.29,0,*51
1522638217.44,8771,9.13,71840.0,-12.75,-13.43,-13.47,0,*5C
1522638218.72,8772,9.13,71844.5,-12.75,-13.33,-13.33,0,*5B
1522638219.97,8773,9.13,71850.3,-12.77,-13.37,-13.37,0,*58
1522638221.26,8774,9.13,71848.8,-12.75,-13.29,-13.33,0,*56
1522638222.54,8775,9.13,71850.0,-12.75,-13.29,-13.33,0,*57
1522638223.8,8776,9.13,71856.3,-12.75,-13.33,-13.43,0,*58
1522638225.05,8777,9.06,71876.0,-12.75,-13.33,-13.43,0,*59
1522638226.3,8778,9.06,71818.8,-12.75,-13.33,-13.43,0,*56
1522638227.52,8779,9.13,71830.5,-12.75,-13.47,-13.47,0,*50
1522638228.75,8780,9.13,71856.5,-12.75,-13.43,-13.43,0,*56
1522638230.03,8781,9.13,71858.5,-12.75,-13.33,-13.33,0,*57
1522638231.29,8782,9.13,71864.0,-12.75,-13.33,-13.43,0,*53
1522638232.55,8783,9.13,71872.5,-12.77,-13.37,-13.33,0,*53
1522638233.8,8784,9.13,71864.8,-12.77,-13.37,-13.37,0,*50
1522638235.08,8785,9.13,71868.0,-12.75,-13.33,-13.33,0,*53
1522638236.31,8786,9.13,71872.8,-12.75,-13.43,-13.43,0,*50
1522638237.56,8787,9.13,71878.0,-12.75,-13.33,-13.47,0,*52
1522638238.77,8788,9.13,71872.3,-12.77,-13.51,-13.47,0,*5B
1522638239.96,8789,9.13,71880.0,-12.77,-13.47,-13.47,0,*5D
1522638241.17,8790,9.13,71880.5,-12.77,-13.51,-13.47,0,*52
1522638242.4,8791,9.13,71866.5,-12.75,-13.43,-13.55,0,*51
1522638243.63,8792,9.13,71862.0,-12.75,-13.43,-13.47,0,*51
1522638244.82,8793,9.13,71854.8,-12.77,-13.47,-13.47,0,*56
1522638246.06,8794,9.13,71860.0,-12.77,-13.51,-13.61,0,*52
1522638247.32,8795,9.13,71850.0,-12.75,-13.47,-13.33,0,*51
1522638248.54,8796,9.13,71844.8,-12.75,-13.43,-13.47,0,*55
1522638249.82,8797,9.13,71844.5,-12.75,-13.33,-13.33,0,*50
1522638251.08,8798,9.13,71832.0,-12.75,-13.33,-13.43,0,*58
1522638252.31,8799,9.13,71830.8,-12.75,-13.43,-13.43,0,*5E
1522638253.53,8800,9.13,71824.3,-12.75,-13.43,-13.43,0,*51
1522638254.76,8801,9.13,71826.8,-12.75,-13.55,-13.47,0,*53
1522638255.98,8802,9.13,71826.8,-12.75,-13.47,-13.43,0,*57
1522638257.19,8803,9.13,71834.3,-12.77,-13.51,-13.47,0,*57
1522638258.42,8804,9.13,71828.8,-12.75,-13.47,-13.43,0,*51
1522638259.65,8805,9.13,71836.3,-12.77,-13.47,-13.61,0,*52
1522638260.87,8806,9.13,71792.3,-12.75,-13.47,-13.47,0,*57
1522638262.1,8807,9.13,71794.3,-12.77,-13.61,-13.51,0,*57
1522638263.36,8808,9.13,71814.8,-12.77,-13.61,-13.61,0,*5B
1522638264.58,8809,9.13,71820.8,-12.75,-13.47,-13.43,0,*5C
1522638265.79,8810,9.13,71822.5,-12.77,-13.47,-13.51,0,*55
1522638266.98,8811,9.13,71830.3,-12.77,-13.47,-13.47,0,*53
1522638268.21,8812,9.13,71818.8,-12.75,-13.47,-13.47,0,*52
1522638269.43,8813,9.13,71834.3,-12.75,-13.43,-13.43,0,*53
1522638270.69,8814,9.13,71816.5,-12.75,-13.43,-13.33,0,*53
1522638271.95,8815,9.13,71832.8,-12.77,-13.37,-13.37,0,*57
1522638273.2,8816,9.13,71834.8,-12.77,-13.33,-13.29,0,*5F
1522638274.48,8817,9.13,71836.3,-12.75,-13.33,-13.29,0,*5C
1522638275.71,8818,9.13,71840.3,-12.77,-13.47,-13.37,0,*5D
1522638276.97,8819,9.13,71860.8,-12.77,-13.37,-13.33,0,*5F
1522638278.2,8820,9.13,71856.8,-12.77,-13.47,-13.33,0,*52
1522638279.46,8821,9.06,71852.3,-12.75,-13.43,-13.33,0,*55
1522638280.74,8822,9.06,71850.8,-12.75,-13.29,-13.29,0,*51
1522638281.99,8823,9.13,71854.8,-12.75,-13.47,-13.33,0,*53
1522638283.25,8824,9.13,71862.5,-12.75,-13.43,-13.33,0,*50
1522638284.51,8825,9.13,71848.0,-12.75,-13.47,-13.33,0,*55
1522638285.76,8826,9.13,71848.3,-12.75,-13.33,-13.43,0,*52
1522638287.02,8827,9.13,71834.0,-12.75,-13.43,-13.33,0,*53
1522638288.3,8828,9.06,71822.0,-12.75,-13.33,-13.33,0,*5B
1522638289.53,8829,9.06,71804.8,-12.75,-13.43,-13.43,0,*5A
1522638290.76,8830,9.13,71844.5,-12.77,-13.47,-13.37,0,*57
1522638292.02,8831,9.06,71850.0,-12.75,-13.43,-13.33,0,*54
1522638293.24,8832,9.13,71848.0,-12.75,-13.43,-13.43,0,*50
1522638294.5,8833,9.13,71858.0,-12.75,-13.33,-13.43,0,*56
1522638295.78,8834,9.13,71838.8,-12.75,-13.33,-13.33,0,*56
1522638297.04,8835,9.06,71836.0,-12.77,-13.37,-13.37,0,*55
1522638298.32,8836,9.13,71834.0,-12.75,-13.33,-13.33,0,*54
1522638299.57,8837,9.13,71804.8,-12.75,-13.33,-13.43,0,*52
1522638300.79,8838,9.06,71756.3,-12.75,-13.47,-13.47,0,*5A
1522638301.99,8839,9.06,71784.0,-12.77,-13.47,-13.47,0,*59
1522638303.24,8840,9.13,71808.0,-12.75,-13.33,-13.47,0,*56
1522638304.52,8841,9.06,71798.3,-12.75,-13.33,-13.33,0,*54
1522638305.77,8842,9.13,71794.8,-12.75,-13.29,-13.47,0,*5F
1522638306.99,8843,9.13,71812.5,-12.75,-13.47,-13.47,0,*56
1522638308.22,8844,9.13,71838.8,-12.75,-13.43,-13.47,0,*55
1522638309.47,8845,9.06,71816.3,-12.75,-13.33,-13.43,0,*57
1522638310.75,8846,9.13,71818.3,-12.75,-13.33,-13.33,0,*53
1522638312.01,8847,9.06,71826.3,-12.75,-13.43,-13.33,0,*55
1522638313.24,8848,9.13,71820.0,-12.75,-13.43,-13.43,0,*5D
1522638314.49,8849,9.13,71826.5,-12.75,-13.33,-13.43,0,*5B
1522638315.72,8850,9.13,71872.5,-12.75,-13.47,-13.55,0,*57
1522638316.95,8851,9.06,71828.3,-12.75,-13.47,-13.55,0,*56
1522638318.18,8852,9.13,71830.0,-12.75,-13.43,-13.55,0,*51
1522638319.4,8853,9.06,71818.5,-12.75,-13.47,-13.47,0,*57
1522638320.63,8854,9.13,71816.0,-12.75,-13.43,-13.47,0,*54
1522638321.86,8855,9.13,71818.0,-12.75,-13.55,-13.55,0,*51
1522638323.09,8856,9.06,71824.5,-12.75,-13.47,-13.43,0,*56
1522638324.31,8857,9.13,71838.5,-12.75,-13.43,-13.47,0,*57
1522638325.57,8858,9.13,71854.0,-12.75,-13.47,-13.61,0,*58
1522638326.79,8859,9.06,71858.8,-12.75,-13.43,-13.47,0,*59
1522638328.02,8860,9.13,71856.3,-12.75,-13.43,-13.47,0,*53
1522638329.27,8861,9.13,71852.5,-12.75,-13.47,-13.33,0,*55
1522638330.5,8862,9.13,71832.3,-12.75,-13.43,-13.43,0,*55
1522638331.73,8863,9.06,71828.8,-12.75,-13.43,-13.47,0,*50
1522638332.94,8864,9.06,71812.3,-12.77,-13.51,-13.51,0,*51
1522638334.17,8865,9.13,71786.5,-12.75,-13.55,-13.47,0,*51
1522638335.39,8866,9.13,71798.5,-12.75,-13.47,-13.47,0,*51
1522638336.61,8867,9.06,71826.8,-12.75,-13.43,-13.47,0,*54
1522638337.86,8868,9.06,71832.0,-12.75,-13.33,-13.47,0,*5C
1522638339.15,8869,9.13,71850.5,-12.75,-13.29,-13.33,0,*55
1522638340.43,8870,9.13,71846.5,-12.75,-13.29,-13.33,0,*5D
1522638341.68,8871,9.13,71874.0,-12.75,-13.33,-13.43,0,*50
1522638342.91,8872,9.06,71902.3,-12.75,-13.43,-13.43,0,*54
1522638344.14,8873,9.13,71876.0,-12.75,-13.43,-13.47,0,*51
1522638345.36,8874,9.06,71862.0,-12.75,-13.43,-13.47,0,*56
1522638346.59,8875,9.06,71886.8,-12.75,-13.43,-13.43,0,*53
1522638347.85,8876,9.13,71884.5,-12.75,-13.33,-13.43,0,*57
1522638349.1,8877,9.06,71882.8,-12.75,-13.33,-13.43,0,*56
1522638350.32,8878,9.06,71886.3,-12.75,-13.43,-13.47,0,*5A
1522638351.52,8879,9.13,71880.8,-12.77,-13.43,-13.47,0,*59
1522638352.75,8880,9.06,71874.3,-12.75,-13.43,-13.43,0,*59
1522638353.98,8881,9.06,71868.3,-12.75,-13.43,-13.43,0,*58
1522638355.21,8882,9.06,71862.3,-12.75,-13.55,-13.43,0,*5C
1522638356.41,8883,9.06,71830.5,-12.77,-13.47,-13.55,0,*5B
1522638357.61,8884,9.06,71822.3,-12.77,-13.47,-13.55,0,*5C
1522638358.84,8885,9.06,71832.5,-12.75,-13.47,-13.47,0,*5C
1522638360.07,8886,9.06,71840.0,-12.75,-13.55,-13.55,0,*5F
1522638361.33,8887,9.06,71840.0,-12.75,-13.55,-13.61,0,*59
1522638362.59,8888,9.06,71846.8,-12.75,-13.55,-13.61,0,*56
1522638363.85,8889,9.06,71856.5,-12.75,-13.55,-13.61,0,*57
1522638365.08,8890,9.06,71872.3,-12.77,-13.61,-13.65,0,*5E
1522638366.31,8891,9.13,71812.0,-12.75,-13.55,-13.55,0,*59
1522638367.57,8892,9.06,71790.0,-12.77,-13.61,-13.61,0,*58
1522638368.8,8893,9.06,71800.3,-12.77,-13.65,-13.61,0,*5D
1522638370.06,8894,9.06,71810.0,-12.75,-13.55,-13.61,0,*5B
1522638371.32,8895,9.13,71792.3,-12.75,-13.61,-13.55,0,*5A
1522638372.57,8896,9.06,71816.5,-12.75,-13.47,-13.61,0,*5A
1522638373.8,8897,9.06,71804.5,-12.75,-13.47,-13.47,0,*5F
1522638375.02,8898,9.06,71818.0,-12.75,-13.55,-13.47,0,*53
1522638376.25,8899,9.13,71834.0,-12.75,-13.55,-13.47,0,*52
1522638377.47,8900,9.06,71832.5,-12.75,-13.47,-13.47,0,*50
1522638378.68,8901,9.06,71830.3,-12.77,-13.51,-13.47,0,*54
1522638379.9,8902,9.13,71828.3,-12.75,-13.43,-13.47,0,*56
1522638381.13,8903,9.13,71818.5,-12.75,-13.43,-13.43,0,*53
1522638382.33,8904,9.06,71830.5,-12.77,-13.47,-13.51,0,*51
1522638383.53,8905,9.06,71826.0,-12.77,-13.47,-13.47,0,*57
1522638384.73,8906,9.06,71826.5,-12.77,-13.51,-13.47,0,*53
1522638385.96,8907,9.06,71832.3,-12.75,-13.47,-13.47,0,*57
1522638387.19,8908,9.06,71836.0,-12.77,-13.61,-13.51,0,*59
1522638388.41,8909,9.06,71838.5,-12.75,-13.43,-13.47,0,*5D
1522638389.65,8910,9.06,71844.5,-12.75,-13.51,-13.47,0,*56
1522638390.87,8911,9.06,71832.0,-12.75,-13.47,-13.47,0,*50
1522638392.09,8912,9.06,71838.5,-12.75,-13.47,-13.47,0,*53
1522638393.3,8913,9.06,71848.8,-12.77,-13.51,-13.51,0,*50
1522638394.53,8914,9.06,71856.0,-12.75,-13.43,-13.43,0,*55
1522638395.76,8915,9.06,71856.0,-12.77,-13.61,-13.47,0,*52
1522638396.99,8916,9.06,71862.3,-12.75,-13.43,-13.43,0,*57
1522638398.2,8917,9.06,71868.8,-12.77,-13.51,-13.51,0,*54
1522638399.41,8918,9.06,71874.3,-12.77,-13.51,-13.43,0,*58
1522638400.64,8919,9.06,71856.5,-12.75,-13.43,-13.43,0,*58
1522638401.84,8920,9.06,71860.5,-12.77,-13.51,-13.47,0,*57
1522638403.04,8921,9.06,71840.3,-12.77,-13.47,-13.47,0,*51
1522638404.29,8922,9.06,71836.3,-12.75,-13.61,-13.47,0,*54
1522638405.51,8923,9.06,71820.0,-12.75,-13.47,-13.47,0,*51
1522638406.71,8924,9.06,71840.3,-12.77,-13.55,-13.47,0,*57
1522638407.92,8925,9.06,71834.3,-12.77,-13.65,-13.51,0,*52
1522638409.17,8926,9.06,71852.5,-12.75,-13.47,-13.61,0,*50
1522638410.41,8927,9.06,71860.8,-12.75,-13.55,-13.55,0,*55
1522638411.67,8928,9.06,71840.3,-12.75,-13.55,-13.61,0,*5D
1522638412.9,8929,9.06,71830.0,-12.77,-13.61,-13.51,0,*5A
1522638414.18,8930,9.06,71826.5,-12.75,-13.61,-13.61,0,*53
1522638415.44,8931,9.06,71852.8,-12.77,-13.61,-13.61,0,*50
1522638416.68,8932,9.06,71840.5,-12.77,-13.51,-13.61,0,*50
1522638417.94,8933,9.06,71844.0,-12.75,-13.55,-13.61,0,*57
1522638419.18,8934,9.06,71846.5,-12.77,-13.61,-13.51,0,*56
1522638420.4,8935,9.06,71830.5,-12.75,-13.55,-13.47,0,*55
1522638421.63,8936,9.13,71826.5,-12.75,-13.55,-13.55,0,*55
1522638422.85,8937,9.06,71810.5,-12.77,-13.51,-13.51,0,*56
1522638424.08,8938,9.06,71810.8,-12.77,-13.61,-13.51,0,*5A
1522638425.31,8939,9.06,71838.0,-12.75,-13.43,-13.43,0,*5A
1522638426.51,8940,9.06,71844.0,-12.77,-13.47,-13.47,0,*56
1522638427.73,8941,9.06,71850.3,-12.75,-13.43,-13.47,0,*51
1522638428.99,8942,9.06,71844.8,-12.75,-13.43,-13.33,0,*51
1522638430.24,8943,9.06,71852.3,-12.77,-13.33,-13.37,0,*51
1522638431.47,8944,9.06,71846.5,-12.75,-13.43,-13.43,0,*50
1522638432.7,8945,9.06,71848.5,-12.75,-13.43,-13.43,0,*51
1522638433.96,8946,9.06,71856.5,-12.77,-13.37,-13.33,0,*54
1522638435.21,8947,9.06,71846.5,-12.75,-13.47,-13.33,0,*50
1522638436.42,8948,9.06,71846.8,-12.77,-13.43,-13.43,0,*5E
1522638437.65,8949,9.06,71840.5,-12.77,-13.47,-13.33,0,*5C
1522638438.9,8950,9.06,71858.5,-12.75,-13.33,-13.43,0,*52
1522638440.1,8951,9.06,71842.3,-12.77,-13.47,-13.51,0,*51
1522638441.3,8952,9.06,71852.5,-12.77,-13.43,-13.47,0,*51
1522638442.53,8953,9.06,71856.0,-12.75,-13.43,-13.43,0,*56
1522638443.76,8954,9.06,71860.0,-12.77,-13.33,-13.43,0,*54
1522638444.99,8955,9.06,71868.5,-12.75,-13.43,-13.51,0,*53
1522638446.19,8956,9.06,71874.3,-12.77,-13.43,-13.47,0,*55
1522638447.41,8957,9.06,71852.8,-12.75,-13.47,-13.47,0,*52
1522638448.63,8958,9.06,71858.5,-12.75,-13.47,-13.47,0,*5D
1522638449.86,8959,9.06,71858.5,-12.77,-13.43,-13.33,0,*59
1522638451.09,8960,9.06,71866.5,-12.75,-13.43,-13.43,0,*56
1522638452.35,8961,9.06,71862.8,-12.75,-13.33,-13.43,0,*50
1522638453.57,8962,9.06,71878.0,-12.75,-13.47,-13.43,0,*50
1522638454.8,8963,9.13,71876.5,-12.75,-13.43,-13.43,0,*55
1522638456.01,8964,9.06,71860.5,-12.77,-13.51,-13.51,0,*50
1522638457.26,8965,9.06,71854.5,-12.75,-13.61,-13.47,0,*57
1522638458.49,8966,9.06,71846.8,-12.75,-13.55,-13.47,0,*53
1522638459.72,8967,9.06,71860.0,-12.75,-13.47,-13.55,0,*52
1522638460.95,8968,9.06,71874.3,-12.75,-13.55,-13.47,0,*5D
1522638462.17,8969,9.06,71856.3,-12.75,-13.47,-13.47,0,*5F
1522638463.4,8970,9.06,71840.3,-12.75,-13.47,-13.55,0,*54
1522638464.63,8971,9.06,71842.0,-12.75,-13.55,-13.55,0,*56
1522638465.87,8972,9.06,71842.5,-12.77,-13.51,-13.61,0,*54
1522638467.09,8973,9.06,71834.5,-12.75,-13.47,-13.43,0,*50
1522638468.32,8974,9.06,71836.3,-12.75,-13.47,-13.43,0,*57
1522638469.52,8975,9.06,71850.3,-12.77,-13.43,-13.43,0,*50
1522638470.77,8976,9.06,71852.8,-12.75,-13.33,-13.43,0,*56
1522638472.0,8977,9.06,71866.8,-12.75,-13.43,-13.47,0,*54
1522638473.2,8978,9.06,71854.3,-12.77,-13.47,-13.47,0,*5D
1522638474.42,8979,9.06,71846.0,-12.77,-13.47,-13.33,0,*5F
1522638475.67,8980,9.06,71850.3,-12.75,-13.33,-13.47,0,*5B
1522638476.93,8981,9.06,71838.3,-12.77,-13.33,-13.37,0,*5F
1522638478.21,8982,9.06,71836.5,-12.75,-13.33,-13.29,0,*51
1522638479.46,8983,9.06,71846.0,-12.77,-13.37,-13.37,0,*59
1522638480.75,8984,9.06,71858.0,-12.75,-13.29,-13.33,0,*57
1522638482.03,8985,9.06,71858.0,-12.75,-13.29,-13.29,0,*5D
1522638483.31,8986,9.06,71852.3,-12.75,-13.33,-13.33,0,*5E
1522638484.59,8987,9.06,71856.3,-12.75,-13.33,-13.29,0,*54
1522638485.79,8988,9.06,71850.0,-12.77,-13.47,-13.47,0,*52
1522638487.02,8989,9.06,71850.8,-12.75,-13.43,-13.43,0,*51
1522638488.3,8990,9.06,71852.8,-12.75,-13.33,-13.33,0,*59
1522638489.56,8991,9.06,71854.8,-12.75,-13.47,-13.33,0,*5B
1522638490.75,8992,9.06,71866.3,-12.77,-13.47,-13.47,0,*59
1522638492.01,8993,9.06,71860.0,-12.75,-13.43,-13.33,0,*5D
1522638493.27,8994,9.06,71856.5,-12.75,-13.43,-13.33,0,*5A
1522638494.55,8995,9.06,71856.5,-12.75,-13.29,-13.33,0,*57
1522638495.83,8996,9.06,71850.0,-12.75,-13.33,-13.29,0,*54
1522638497.12,8997,9.06,71856.8,-12.75,-13.33,-13.33,0,*5E
1522638498.37,8998,9.06,71860.8,-12.75,-13.33,-13.43,0,*56
1522638499.65,8999,9.06,71866.8,-12.75,-13.33,-13.33,0,*50
1522638500.93,9000,9.06,71856.3,-12.75,-13.33,-13.33,0,*58
1522638502.19,9001,9.06,71848.8,-12.75,-13.43,-13.33,0,*5E
1522638503.48,9002,9.06,71862.8,-12.75,-13.29,-13.33,0,*51